Meath Environmental Platform

Observations for Trim Market St

Time AQI Temp °C Hum % Pres Pa CO μg/m³ H₂S μg/m³ NO μg/m³ NO₂ μg/m³ O₃ μg/m³ SO₂ μg/m³ PM1 μg/m³ PM2.5 μg/m³ PM10 μg/m³
Wednesday 15 July 2026
15:27 1 36.3 32 66,550 0 0 0 7.18 26.73 0 4.99 10.26 12.65
15:22 1 36.2 31 66,550 0 0 0 3.87 31.96 0.81 5.7 10.3 13.53
15:20 1 36.2 31 66,543 0 0 0 0.67 28.4 0.82 7.13 11.38 18.68
15:15 1 36.2 31 66,552 0 0 0 0 29.34 1.06 6.41 10.31 13.53
15:14 1 36.2 31 66,550 0 0 0 0.46 32.41 1.15 6.41 10.84 13.53
15:13 1 36.2 31 66,548 0 0 0 1.67 28.25 0.67 5.7 10.3 12.67
15:12 1 36.2 31 66,570 0 0 0 8.36 21.02 0 6.41 10.29 12.67
15:11 1 36.2 31 66,572 0 0 0 5.56 28.5 0.66 6.41 11.38 15.24
15:10 1 36.3 31 66,574 0 2.52 0 3.95 40.2 1.48 6.41 9.76 11.81
15:09 1 36.2 31 66,580 0 0 0 3.3 38.56 1.21 5.7 9.23 10.96
15:08 1 36.3 31 66,556 0 0 0 0.69 34.91 1.17 8.55 11.41 15.27
15:06 1 36.3 31 66,556 0 0 0 0.98 41.03 1.09 5.7 10.32 14.4
15:04 1 36.3 31 66,550 0 0 0 0 31.93 1.32 7.84 11.94 16.12
14:58 1 36.4 31 66,564 0 0 0 0 27.97 1.34 7.13 10.33 13.55
14:52 1 36.6 31 66,580 0 0 0 2.19 28.23 0.95 7.13 10.85 15.26
14:50 1 36.6 31 66,586 0 0 0 2.55 15.88 0.76 7.13 13 17.81
14:48 1 36.6 31 66,582 0 0.46 0 5.19 37.19 0.97 6.41 9.77 12.68
14:44 1 36.5 31 66,564 0 1.68 0 6.43 33.43 0.69 8.55 13.57 18.7
14:43 1 36.5 31 66,586 0 0 0 10.25 20.79 0.54 7.84 11.42 15.27
14:42 1 36.6 30 66,586 0 0 0 6.63 24.67 0.52 7.84 13.59 17.86